STARLINK-1441 (45658 NORAD) Tracking and Keplerian Element Data

This shows tracking and keplerian element data for the satellite.

Feedback or suggestion? Click here.




ElementValue
Catalog45658
NameSTARLINK-1441
Epoch Orbit1060
Epoch Day218.91667824
Epoch Year2020
RAAN232.4849
Inclination53.0007
Eccentricity0.0001337
Argument of Perigee76.5031
Mean Anonmoly42.0831
Mean Motion15.05588881
Decay Rate-6.318E-05
L11 45658U 20035B 20218.91667824 -.00006318 00000-0 -41475-3 0 9998
L22 45658 53.0007 232.4849 0001337 76.5031 42.0831 15.05588881 10607

Live tracking and technical data element details for STARLINK-1441 (NORAD 45658). STARLINK-1441 can be tracked NOW for your location showing map with azimuth and elevation plus other details from your city location.

Track the satellite on the map from your city or location and see movement details for azimuth, elevation, latitude, longitude, range, height, and movement on the map or in text.







IsCatalogInMostPopularTable: catalog: 45658, numindb: 10
Update: records affected: 1



GetName: 45658 STARLINK-1441

Hit Count: updated at: Fri, 07 Aug 2020 23:38:08 GMT